Flag for Italy Weather past 2 weeks in Varese, Italy

Now
71 °F

Mild.


Feels Like: 75 °F
Forecast: 45 / 68 °F
Wind: 5 mph from East

Location: Stabio

Current Time: May 6, 2015 at 6:33:06 PM

Latest Report: May 6, 2015 at 4:00 PM


Visibility: N/A

Pressure: 29.86 "Hg

Humidity: 65%

Dew point: 58 °F

Location of VareseLocation

Historic Weather in Varese — Graph

°F

Varese temperature yesterday

Maximum temperature yesterday: 70 °F (at 5:00 PM)
Minimum temperature yesterday: 55 °F (at 6:00 AM)
Average temperature yesterday: 63 °F

Past Weeks' High & Low Weather Summary

 TemperatureHumidityPressure
High78 °F (Apr 22, 4:00 PM)100% (Apr 27, 12:00 AM)30.29 "Hg (Apr 27, 12:00 AM)
Low40 °F (Apr 22, 7:00 AM)23% (Apr 22, 4:00 PM)29.62 "Hg (Apr 28, 6:00 AM)
Average57 °F78%29.94 "Hg
* Reported Apr 21 4:00 PM — May 6 4:00 PM, Varese, Weather by CustomWeather, © 2015

Note: Actual official high and low records may vary slightly from our data, if they occured in-between our weather recording intervals... More about our weather records

Advertising

Varese weather history for previous 24 hours

 ConditionsComfort  
Time TempWeatherWind HumidityBarometerVisibility
4:00 PM
Wed, May 6
71 °FMild.5 mph65%29.86 "HgN/A
3:00 PM68 °FMild.5 mph75%29.89 "HgN/A
2:00 PM62 °FCool.1 mph92%29.91 "HgN/A
1:00 PM58 °FCool.3 mph93%29.92 "HgN/A
12:00 PM67 °FMild.6 mph78%29.88 "HgN/A
11:00 AM67 °FMild.5 mph77%29.89 "HgN/A
10:00 AM66 °FMild.5 mph80%29.88 "HgN/A
9:00 AM65 °FMild.2 mph82%29.88 "HgN/A
8:00 AM64 °FMild.1 mph81%29.89 "HgN/A
7:00 AM58 °FCool.1 mph94%29.90 "HgN/A
6:00 AM58 °FCool.No wind99%29.90 "HgN/A
4:00 AM58 °FCool.No wind100%29.90 "HgN/A
3:00 AM59 °FCool.No wind98%29.92 "HgN/A
2:00 AM59 °FCool.No wind94%29.93 "HgN/A
1:00 AM58 °FCool.No wind95%29.94 "HgN/A
12:00 AM59 °FCool.No wind93%29.95 "HgN/A
10:00 PM
Tue, May 5
60 °FCool.No wind94%29.95 "HgN/A
9:00 PM62 °FCool.2 mph92%29.93 "HgN/A
8:00 PM67 °FMild.No wind80%29.90 "HgN/A
7:00 PM67 °FMild.5 mph75%29.90 "HgN/A
6:00 PM69 °FMild.5 mph72%29.90 "HgN/A
Weather by CustomWeather, © 2015

See weather overviewHow to use our weather pages